Temp_Advection
nan nan nan nan nan nan nan nan nan nan nan nan nan nan nan nan nan nan nan nan nan nan nan nan nan nan nan nan nan nan nan nan nan nan nan nan nan nan nan nan nan nan nan nan nan nan nan nan nan
nan 0 0 -0 -0 -0 -0 -0 -1 -0 -1 -1 -1 0 0 -0 -0 -0 -0 0 0 0 -0 -0 -0 -0 -0 -0 0 0 0 0 0 0 0 0 0 0 0 0 0 0 0 0 0 0 0 0 nan
nan 0 -0 -0 -0 -0 -0 -0 -0 -0 -1 -1 -1 -2 -0 -0 -0 -0 -0 -0 0 0 0 0 0 -0 -0 -0 0 0 1 0 0 0 0 0 0 0 0 0 0 0 0 0 0 0 0 0 nan
nan 0 -0 -0 -0 -0 -1 -0 0 -0 -1 -0 0 -1 -2 -0 0 0 -0 0 0 0 0 -0 -0 -0 -0 0 -0 -0 0 0 0 0 0 0 0 0 0 0 0 0 0 0 0 0 0 0 nan
nan -0 0 0 -0 -0 -0 -1 0 -0 -1 -1 -0 -0 -2 -1 0 0 0 0 -0 -0 -0 -0 -0 -0 -0 0 0 -0 0 0 0 0 0 0 0 0 0 0 0 0 0 0 0 0 0 0 nan
nan 0 -0 -0 -1 -0 -0 -1 -0 -0 -1 -0 0 -1 -1 -0 0 0 0 -0 -0 -0 -1 -0 -0 0 0 0 0 -0 -0 0 0 0 0 0 0 0 0 0 0 0 0 0 -0 -0 0 0 nan
nan -0 -0 -0 -0 -0 -0 -0 -0 -0 -0 -1 0 -0 -2 -0 1 0 0 0 0 1 0 0 0 0 -0 -0 0 0 0 0 0 0 0 0 0 0 0 0 0 0 -0 -0 0 0 0 0 nan
nan -0 0 -0 -0 -0 -1 -0 -0 -0 -0 -1 -0 0 -1 -1 0 1 1 1 1 1 1 1 0 0 0 0 0 0 0 0 0 0 0 0 0 0 0 -0 0 0 0 0 0 0 0 0 nan
nan 0 -0 -0 -0 -0 -0 -0 -1 -0 -0 -1 -1 0 1 0 0 2 1 1 1 1 1 1 1 1 0 0 0 0 0 0 0 0 0 0 0 0 0 0 0 0 0 0 0 -0 -0 0 nan
nan -0 -1 -0 -0 -0 -0 -0 -1 -0 -0 -1 -2 -1 -0 1 0 0 0 1 -0 0 1 0 0 1 0 0 0 0 0 0 0 0 0 0 0 1 0 0 0 0 0 0 -0 0 1 0 nan
nan -0 -0 -0 -0 0 -0 -1 -0 0 -1 -1 -1 -1 -1 -0 1 0 0 0 -0 1 0 0 0 0 -0 0 0 0 0 0 0 0 1 0 0 1 0 0 0 0 0 0 0 0 1 0 nan
nan -0 -0 -0 -0 1 -0 -1 -0 -0 -1 -1 -1 -0 -1 -1 -0 0 1 -0 0 0 0 0 0 -0 0 0 0 0 0 0 0 1 1 0 0 0 -0 0 0 0 0 0 0 0 0 0 nan
nan -1 -1 -0 -0 -0 1 0 -0 -1 -1 -0 -0 -0 -0 -0 -0 -1 -0 0 1 0 -0 -0 0 0 0 0 0 0 0 0 0 1 1 0 0 0 0 0 0 0 0 0 0 0 0 1 nan
nan 0 -0 -0 -0 0 0 -0 -0 -0 -1 -0 -0 -1 -1 -1 -0 -0 -0 -0 -0 0 -0 -0 -0 1 1 0 0 0 0 1 0 1 1 0 1 0 0 0 0 0 0 0 0 0 1 0 nan
nan 0 -0 -0 -0 -0 0 1 -0 -1 -0 -0 -1 -0 -1 -1 -0 0 -1 -0 -0 -0 0 1 -0 1 0 0 0 0 1 1 0 1 1 1 1 0 0 -0 -0 0 0 1 0 0 0 -0 nan
nan -0 -0 -0 -0 -0 0 0 -1 -1 -0 -1 -1 -1 -1 -1 -1 -0 -0 -0 -0 0 -0 0 1 1 0 0 0 0 1 1 1 1 1 1 1 0 0 -0 0 0 1 1 0 0 -0 0 nan
nan -0 -0 -1 -0 0 0 -0 -0 -1 -0 -1 -2 -1 -1 -1 -1 -0 -0 -0 -0 0 0 -0 0 0 0 0 0 0 1 1 1 1 1 1 1 0 0 0 0 1 1 0 0 0 0 0 nan
nan -0 -0 -0 -0 -0 -0 -1 -1 -1 -0 -0 -1 -2 -1 -1 -1 -1 -1 -1 -0 -0 0 -0 -1 0 1 1 0 1 1 1 1 1 0 1 1 0 0 0 0 1 1 0 0 0 0 0 nan
nan 0 0 -0 -0 -0 -0 -0 -1 -0 -0 -0 -1 -1 -2 -2 -2 -2 -3 -2 -1 0 -0 -0 0 0 0 -0 -0 0 0 1 1 -0 1 1 1 1 0 0 1 1 0 0 0 0 0 1 nan
nan 0 -0 -0 -0 0 -0 -1 -0 0 -0 -1 -0 -1 -2 -4 -5 -4 -4 -3 -2 -1 -0 -0 -0 -0 -0 -0 1 0 1 1 1 1 2 2 1 0 1 1 1 1 0 0 0 0 0 0 nan
nan -0 -0 -0 -0 0 -0 -1 -0 -0 -0 -1 -1 -1 -0 0 -1 -4 -5 -4 -2 -1 -1 -1 -0 0 -0 1 1 1 0 0 1 1 1 0 0 0 1 1 0 -0 -0 0 0 0 -0 -0 nan
nan -1 -0 0 -0 -0 0 -0 -1 -0 0 -0 -0 0 -1 -1 0 -1 -3 -4 -2 -1 -1 -1 -1 0 2 -0 -1 -0 0 -0 -0 2 1 1 1 1 1 0 -0 0 0 0 -0 -0 0 0 nan
nan -0 0 0 0 -0 -0 0 -1 -0 -0 -0 -0 0 -0 -2 -2 -1 -1 -2 -2 -2 -1 -1 0 1 0 -0 1 2 1 -0 2 3 1 1 1 1 1 0 0 0 0 0 0 0 1 0 nan
nan -0 -0 -0 -0 -0 -0 -0 0 -0 -0 -0 0 -0 -1 -1 -2 -2 -1 -1 -1 -2 -1 1 1 1 1 2 2 2 -0 0 2 2 1 0 0 1 0 0 0 0 0 0 0 0 0 0 nan
nan -0 -0 0 -0 -0 -0 0 0 -0 -0 -0 0 -0 0 -1 -1 -2 -1 -1 -1 -2 -1 1 0 1 3 3 2 0 -1 0 2 2 0 -0 0 0 -0 1 0 0 0 0 0 0 0 1 nan
nan 0 -0 -0 -0 -0 0 0 -0 -0 -0 0 -1 -1 -1 -1 -1 -1 -1 -2 -1 -1 -1 -0 0 1 1 -0 -1 -3 -1 1 3 1 0 0 0 0 1 1 0 0 0 0 0 0 -0 -0 nan
nan 0 0 0 0 -0 0 -0 -0 -0 -0 -0 -1 -1 -2 -1 -0 -1 -2 -1 -1 -0 -0 -0 -0 -1 -0 -2 -1 -1 0 2 2 1 1 1 1 1 0 0 0 0 0 0 0 -0 -0 0 nan
nan 0 -0 -0 -0 -0 -0 0 -0 -0 0 -0 -1 -1 -1 -1 -0 -0 -1 -1 -1 -1 -0 -0 0 0 -1 -1 -0 -0 1 2 1 1 1 1 1 0 0 0 0 0 -0 -0 0 0 0 0 nan
nan -0 -0 -0 0 0 0 -0 -0 0 -0 -0 -1 -1 -0 -1 -1 -1 -1 -1 -1 -0 -0 0 0 0 -1 1 1 1 1 2 1 1 1 0 0 0 0 0 0 0 -0 0 0 0 0 -0 nan
nan nan nan nan nan nan nan nan nan nan nan nan nan nan nan nan nan nan nan nan nan nan nan nan nan nan nan nan nan nan nan nan nan nan nan nan nan nan nan nan nan nan nan nan nan nan nan nan nan
Wind_Speed
6 5 6 3 3 4 5 7 5 1 2 1 12 6 10 13 4 5 16 22 22 25 29 29 27 25 24 23 21 19 17 17 17 17 17 16 14 13 13 14 13 13 13 13 15 16 15 14 13
4 7 7 4 4 1 6 4 9 3 8 22 22 16 7 7 4 2 18 18 20 25 28 28 27 25 24 22 21 20 18 18 18 18 18 17 17 16 15 13 13 14 14 14 16 16 15 15 13
6 10 5 4 5 7 6 6 7 4 17 24 10 17 12 5 8 8 16 22 23 24 26 27 26 24 23 21 21 21 19 19 19 20 19 18 18 17 16 14 14 13 14 14 16 17 15 15 14
8 6 2 3 9 6 7 4 3 8 16 8 12 12 16 11 4 16 17 23 24 24 26 25 23 22 21 20 20 19 19 18 19 20 20 20 19 18 17 15 14 14 14 14 15 15 15 14 13
11 4 1 3 6 6 6 14 7 8 9 20 29 11 20 19 13 16 19 25 26 24 24 23 22 21 20 19 19 18 18 18 19 20 20 20 19 18 17 17 15 14 14 14 14 14 15 16 16
5 4 2 7 7 4 6 15 5 6 15 21 14 17 20 17 18 22 23 26 25 23 26 25 23 22 21 19 17 17 16 17 18 18 19 20 20 19 18 17 17 16 16 16 16 17 18 16 15
6 4 5 4 3 4 5 2 3 4 9 10 22 6 16 13 20 25 24 25 26 26 26 27 27 24 21 19 17 15 15 16 16 17 19 20 21 20 20 20 20 19 18 19 20 19 19 19 16
4 4 3 6 5 7 7 7 10 12 7 23 19 7 17 20 18 30 28 28 29 29 29 29 27 25 22 20 18 15 14 14 15 17 18 20 21 21 21 21 20 21 18 19 19 17 21 22 21
7 1 3 5 6 4 10 5 19 18 19 16 15 23 24 27 23 30 29 26 26 27 28 28 27 27 25 22 20 18 15 15 15 16 18 20 22 22 23 21 21 20 18 17 20 21 20 23 26
6 4 9 6 4 4 10 14 28 5 15 23 30 23 24 22 10 26 29 30 29 27 28 27 26 26 25 24 22 19 18 16 16 16 18 21 22 21 21 20 21 19 18 19 20 20 23 25 23
6 7 4 4 9 13 7 16 28 13 14 15 26 29 28 19 14 18 26 30 29 27 26 25 25 25 26 26 25 23 20 18 16 16 18 19 20 20 21 21 21 20 19 21 21 22 25 28 26
5 8 9 6 19 19 10 21 13 24 23 27 29 29 23 19 19 20 20 29 31 31 27 26 25 25 24 25 26 25 23 21 19 19 20 22 21 22 22 21 21 21 21 24 23 20 23 28 29
6 10 18 23 24 24 29 16 17 23 27 23 23 25 28 28 27 25 28 25 32 35 34 31 29 28 27 27 27 28 26 24 20 20 22 22 22 22 22 21 20 21 21 23 23 19 22 22 31
7 7 14 11 14 12 11 8 7 9 26 27 29 32 33 33 34 35 33 31 30 30 41 39 36 32 31 28 25 26 29 27 22 22 22 20 22 22 22 21 21 22 22 23 24 21 18 27 30
7 6 5 5 5 6 13 11 6 15 22 22 24 28 32 34 35 34 32 32 35 36 32 44 43 40 38 31 30 27 30 30 27 24 22 19 22 21 20 20 20 22 23 25 24 20 21 27 26
4 1 3 3 5 7 3 15 7 15 16 26 30 34 34 31 30 24 23 22 24 29 35 36 41 45 38 33 32 30 29 31 30 27 24 21 22 21 21 21 20 22 23 25 25 22 27 28 25
3 4 4 7 4 3 5 13 4 25 21 22 29 33 33 35 34 31 30 31 30 28 27 36 38 43 40 36 33 31 30 33 32 29 26 24 23 22 21 21 20 21 24 26 25 25 28 29 26
5 3 3 4 6 2 7 23 15 18 17 20 25 33 37 40 40 38 36 35 34 33 28 30 38 43 41 38 37 33 31 34 33 32 29 25 25 23 22 21 20 23 26 27 27 27 28 31 28
4 4 6 7 10 4 13 21 19 14 12 17 24 27 31 31 32 32 37 39 38 35 32 28 32 42 45 44 42 38 36 38 35 34 30 28 27 25 24 23 22 23 28 28 27 27 27 29 31
6 7 11 7 13 6 10 18 14 7 9 18 22 19 23 32 33 34 33 32 37 37 33 30 28 35 46 46 45 42 40 41 37 36 33 31 28 26 25 25 25 25 25 27 28 28 29 31 35
7 6 10 12 5 6 5 14 12 7 3 14 16 18 22 25 35 36 34 23 22 29 32 31 28 33 40 47 49 45 42 34 33 34 35 33 30 28 26 23 25 28 28 28 26 28 30 35 38
7 9 13 7 4 5 4 8 20 4 4 3 7 15 22 28 30 34 34 27 17 16 22 24 28 28 42 50 48 48 47 39 43 47 39 34 32 30 27 23 24 27 29 28 26 26 29 34 35
8 9 7 3 4 7 5 1 9 6 4 7 10 15 18 25 25 32 31 30 19 12 14 19 27 29 43 44 47 49 49 42 41 40 39 36 33 30 29 26 26 28 28 27 27 26 31 34 36
3 2 3 3 2 5 12 7 5 3 3 9 9 12 18 27 28 27 27 27 19 13 13 17 25 32 39 50 51 51 50 42 38 39 37 36 33 30 29 27 27 30 28 28 26 28 30 32 36
4 4 2 3 1 6 4 2 6 5 9 9 9 13 19 29 26 27 28 29 25 18 8 16 25 31 40 48 50 48 47 41 33 34 35 34 31 30 28 27 26 26 25 27 27 26 27 29 33
5 7 5 6 4 6 2 5 5 6 8 4 9 12 28 33 27 29 27 27 26 21 9 14 24 28 36 41 40 42 38 35 31 31 32 30 25 21 20 22 24 23 26 25 26 27 30 30 33
2 1 4 5 2 3 4 5 6 5 5 1 9 17 24 27 27 28 27 26 26 18 10 8 22 23 28 30 33 36 34 31 30 29 27 23 18 16 15 16 18 22 23 24 24 24 28 31 34
6 4 3 3 3 4 4 4 4 3 6 4 9 14 18 25 29 30 28 29 26 18 10 2 16 22 28 21 21 30 26 26 24 25 24 20 17 16 14 17 20 23 25 24 23 26 28 35 37
4 2 3 3 4 3 3 4 4 4 5 6 6 13 14 22 28 29 29 28 26 20 11 8 3 12 24 19 25 26 23 25 24 24 20 18 16 13 14 16 17 21 20 21 25 26 28 31 37
3 2 4 1 3 3 3 5 7 7 7 7 10 14 12 17 23 24 26 25 26 25 19 13 15 13 11 17 21 21 24 21 22 20 17 17 14 12 13 14 15 15 16 16 17 19 17 28 33
Wind_Direction
230 203 168 158 50 65 260 268 295 178 306 219 322 281 260 274 214 224 152 160 165 172 170 168 166 169 174 181 184 181 174 178 179 179 179 177 175 175 181 185 189 197 203 202 195 190 191 188 183
198 169 158 124 107 258 271 255 271 250 288 317 318 308 244 249 227 180 158 163 166 170 171 171 168 172 178 185 188 186 180 181 183 183 183 181 181 182 185 193 199 202 203 204 198 197 190 193 185
177 165 157 143 160 195 231 222 266 310 317 311 301 312 282 220 216 190 174 170 170 177 176 173 172 175 182 188 191 190 187 185 184 186 188 187 187 187 186 191 201 206 205 201 199 200 196 196 194
164 155 98 134 225 254 220 227 353 351 328 318 302 301 301 260 235 191 183 184 183 182 179 175 176 179 185 189 191 192 192 190 189 190 191 192 194 192 189 192 202 207 205 201 205 205 196 201 203
163 135 133 245 247 263 274 277 339 306 293 302 308 284 297 283 194 184 184 182 183 181 177 178 181 185 188 190 191 194 197 197 196 194 196 197 199 199 194 196 206 210 206 203 203 199 199 202 202
143 131 126 234 242 249 267 274 277 284 299 312 333 311 287 258 218 189 185 183 185 184 182 184 186 188 191 193 193 195 200 201 201 200 199 202 203 205 201 201 204 209 204 203 203 202 196 197 194
144 114 214 218 248 300 256 307 192 275 309 311 334 297 331 257 212 191 185 184 183 186 190 191 190 190 190 192 196 200 201 203 202 203 204 205 206 208 206 204 207 213 214 212 214 206 199 186 190
196 121 218 214 207 261 266 282 286 308 284 317 332 327 322 312 212 189 190 189 188 191 193 191 191 193 195 197 197 201 207 206 206 209 209 210 210 210 211 211 215 218 217 219 219 212 200 188 203
197 215 221 215 189 239 296 316 297 305 288 299 307 307 324 333 220 202 194 193 194 195 195 194 195 196 197 199 202 204 207 213 215 213 216 214 214 215 217 216 221 223 221 220 221 214 209 205 197
180 189 218 205 202 253 290 293 293 280 295 298 298 298 315 330 255 211 200 201 201 200 199 203 204 204 202 202 208 211 214 217 223 221 220 219 217 217 219 217 221 223 224 219 218 218 218 219 224
209 238 214 229 260 274 263 284 284 288 285 273 287 301 304 301 304 237 222 210 213 216 210 213 215 214 212 210 211 212 217 222 225 226 224 221 218 213 214 216 218 220 217 212 214 217 227 226 221
254 241 239 266 272 275 264 274 279 277 270 281 286 287 288 285 279 279 259 238 233 219 225 228 224 223 223 222 222 223 221 225 227 228 223 220 219 216 217 216 215 219 220 217 221 223 229 230 232
223 253 265 268 271 274 278 262 255 274 293 296 291 286 286 287 281 277 270 261 249 241 232 230 231 228 229 225 226 227 227 225 226 226 223 222 222 218 218 217 217 222 225 218 212 220 217 234 198
258 258 285 284 272 268 270 261 259 265 290 294 297 298 290 286 288 281 272 268 263 252 243 236 233 236 230 228 234 238 229 224 222 221 221 220 222 219 218 217 217 221 221 215 210 217 224 201 201
268 296 302 254 245 243 280 274 236 291 303 302 308 312 306 298 296 286 282 275 270 266 258 240 235 234 233 232 233 238 228 222 222 219 216 214 217 214 216 218 219 220 218 214 212 217 206 192 198
331 18 326 300 13 285 252 274 270 297 308 310 312 311 306 301 298 290 281 280 274 267 255 253 239 235 233 231 230 233 230 224 220 219 214 211 214 213 216 220 217 217 218 217 210 210 198 200 199
355 256 265 311 238 261 220 286 264 298 299 296 301 303 303 302 295 291 288 285 282 281 264 246 247 237 232 229 229 234 231 226 222 221 219 214 216 216 218 220 216 217 217 215 212 207 204 201 206
236 231 260 234 290 87 283 286 292 293 290 280 291 299 300 296 300 304 299 291 289 288 276 249 242 242 233 231 228 226 230 231 223 221 222 218 219 219 220 219 218 218 218 217 214 212 210 213 217
221 245 252 264 272 289 275 273 280 284 297 292 290 290 293 306 306 305 301 294 290 284 279 270 251 241 229 224 226 221 224 229 227 222 222 219 221 222 223 220 220 218 221 222 218 215 217 216 215
233 266 278 279 261 242 250 269 279 286 282 295 312 348 3 352 337 317 311 296 283 284 276 266 261 239 233 233 227 222 224 225 230 223 221 217 220 223 225 223 223 222 224 224 221 221 218 219 212
243 234 260 254 257 235 278 291 297 313 25 45 12 358 355 347 345 338 322 312 281 275 271 262 260 242 232 226 222 218 218 220 232 228 221 213 219 223 224 220 222 227 229 228 224 220 221 214 214
246 235 242 258 332 282 136 297 307 336 154 19 341 352 350 345 336 341 335 318 300 272 266 256 251 245 228 224 222 218 215 214 226 225 221 220 222 222 221 225 227 230 232 230 228 222 223 221 221
240 232 222 248 249 317 153 160 285 344 313 336 316 330 350 355 345 339 338 328 313 293 248 245 243 242 228 226 224 218 214 219 228 223 222 217 218 222 223 223 228 231 234 230 230 228 228 224 225
205 146 42 31 60 282 297 176 270 307 286 297 304 334 352 357 346 344 340 332 327 308 248 224 232 234 230 222 221 217 214 218 226 223 215 209 214 219 220 224 228 229 230 230 228 232 235 226 230
153 102 334 317 339 237 249 321 245 236 248 259 313 348 347 5 346 345 350 343 337 331 254 214 227 228 225 220 220 218 216 219 224 219 210 206 210 216 222 225 225 224 226 232 232 234 228 229 229
250 172 174 233 212 273 186 254 260 221 267 322 37 6 356 354 345 352 355 349 348 349 310 209 217 221 220 221 226 222 215 217 223 214 209 208 215 219 222 221 223 226 231 235 234 237 233 233 237
328 188 229 253 313 301 235 276 297 242 277 119 52 24 5 344 349 354 356 359 356 358 352 206 209 232 227 222 224 219 216 219 214 205 207 211 206 202 200 213 224 231 236 238 243 240 242 243 237
81 309 16 17 271 242 257 263 240 252 281 42 32 41 4 347 355 358 4 5 7 3 358 216 196 216 215 212 226 227 227 222 203 204 203 198 191 188 206 223 235 239 238 241 243 244 246 246 241
353 40 36 296 214 257 294 262 244 234 337 99 53 62 14 358 358 1 359 6 15 15 19 44 148 189 236 219 220 233 230 212 199 194 192 191 190 193 217 227 237 235 240 247 250 248 249 258 223
241 64 70 293 333 295 274 272 6 53 52 73 59 53 30 11 4 7 4 7 17 24 31 43 72 148 196 226 236 221 226 200 187 190 189 183 194 207 215 220 236 234 243 244 236 242 253 246 225
Height
1494 1495 1498 1500 1511 1515 1515 1500 1484 1478 1473 1469 1468 1468 1467 1463 1461 1470 1450 1453 1456 1459 1462 1465 1468 1472 1477 1481 1483 1482 1480 1485 1488 1491 1493 1494 1496 1499 1502 1504 1506 1508 1509 1510 1512 1513 1516 1518 1519
1493 1495 1498 1499 1517 1523 1514 1492 1484 1481 1474 1471 1465 1461 1461 1459 1456 1454 1454 1455 1458 1459 1461 1464 1466 1471 1475 1479 1482 1483 1480 1481 1486 1489 1492 1494 1495 1497 1501 1504 1505 1507 1508 1510 1512 1513 1516 1518 1520
1492 1495 1498 1501 1515 1518 1507 1484 1478 1478 1477 1474 1470 1464 1460 1454 1453 1453 1454 1456 1457 1460 1462 1464 1466 1469 1473 1477 1480 1483 1482 1481 1483 1487 1490 1493 1494 1496 1499 1503 1505 1507 1508 1509 1511 1513 1516 1518 1519
1491 1496 1499 1505 1502 1495 1485 1476 1476 1476 1472 1472 1472 1466 1459 1453 1450 1451 1452 1454 1457 1459 1462 1464 1467 1470 1472 1475 1479 1482 1483 1483 1483 1484 1488 1491 1493 1495 1497 1501 1504 1506 1507 1509 1510 1513 1515 1518 1520
1491 1494 1504 1506 1499 1490 1482 1473 1479 1479 1477 1470 1468 1463 1456 1453 1449 1449 1450 1453 1455 1458 1461 1464 1467 1470 1472 1475 1476 1480 1482 1483 1484 1484 1486 1489 1492 1494 1496 1498 1502 1505 1506 1509 1510 1513 1515 1515 1517
1490 1492 1507 1505 1494 1483 1479 1476 1479 1479 1476 1471 1467 1463 1453 1449 1449 1448 1449 1450 1453 1455 1458 1461 1465 1467 1470 1473 1476 1478 1481 1482 1484 1484 1485 1488 1490 1493 1495 1497 1499 1503 1506 1508 1509 1510 1512 1514 1516
1487 1495 1498 1495 1489 1485 1477 1475 1477 1477 1475 1471 1469 1462 1455 1448 1448 1449 1450 1451 1451 1454 1456 1458 1461 1465 1468 1471 1474 1476 1478 1481 1483 1484 1484 1486 1488 1490 1493 1494 1496 1499 1503 1505 1507 1509 1511 1512 1515
1486 1489 1491 1486 1486 1485 1474 1474 1474 1475 1473 1471 1470 1465 1459 1454 1451 1448 1449 1450 1451 1453 1454 1457 1459 1462 1466 1468 1472 1475 1477 1479 1481 1483 1484 1484 1486 1487 1490 1492 1494 1497 1500 1503 1506 1509 1511 1510 1513
1484 1490 1494 1482 1480 1476 1470 1471 1470 1472 1471 1469 1467 1466 1461 1453 1451 1450 1449 1452 1453 1454 1455 1456 1458 1460 1462 1466 1469 1472 1475 1477 1479 1480 1483 1483 1484 1485 1488 1490 1492 1495 1498 1502 1504 1505 1508 1511 1510
1480 1486 1479 1472 1470 1471 1470 1470 1466 1469 1469 1465 1462 1462 1460 1457 1454 1454 1452 1452 1452 1453 1453 1455 1457 1458 1460 1463 1467 1469 1472 1474 1476 1478 1480 1481 1482 1483 1485 1487 1489 1493 1496 1499 1501 1503 1506 1508 1509
1474 1472 1470 1468 1469 1469 1468 1466 1464 1463 1463 1464 1459 1458 1458 1458 1457 1456 1458 1455 1454 1454 1453 1454 1456 1457 1458 1459 1463 1465 1468 1471 1473 1474 1477 1479 1480 1481 1483 1484 1486 1489 1493 1495 1498 1501 1502 1504 1506
1473 1466 1465 1466 1467 1465 1463 1462 1460 1459 1458 1458 1457 1455 1455 1454 1453 1455 1457 1458 1458 1454 1453 1452 1453 1454 1456 1458 1459 1462 1464 1468 1470 1471 1473 1476 1477 1479 1480 1481 1483 1485 1489 1492 1494 1497 1498 1501 1501
1468 1464 1462 1462 1462 1460 1457 1457 1456 1452 1451 1452 1452 1452 1450 1449 1448 1449 1450 1452 1453 1454 1453 1450 1449 1451 1452 1455 1456 1458 1460 1463 1466 1468 1470 1473 1475 1476 1477 1479 1480 1482 1485 1489 1491 1494 1497 1498 1500
1461 1460 1459 1459 1458 1455 1453 1451 1453 1450 1448 1446 1445 1443 1443 1442 1441 1441 1443 1443 1445 1447 1448 1448 1446 1447 1447 1450 1453 1454 1456 1459 1462 1464 1467 1469 1473 1474 1475 1476 1477 1479 1482 1486 1489 1493 1494 1496 1500
1460 1460 1457 1455 1454 1453 1449 1446 1449 1445 1443 1441 1439 1437 1436 1435 1435 1432 1433 1434 1437 1437 1440 1440 1442 1443 1442 1444 1448 1449 1451 1455 1456 1459 1463 1465 1469 1470 1472 1473 1474 1476 1480 1483 1487 1490 1493 1496 1499
1461 1459 1462 1454 1453 1451 1451 1441 1442 1439 1438 1436 1434 1432 1429 1428 1427 1426 1426 1425 1427 1427 1428 1432 1434 1436 1438 1439 1441 1445 1447 1450 1452 1455 1459 1461 1465 1467 1469 1470 1472 1474 1477 1481 1484 1487 1490 1494 1497
1466 1469 1464 1458 1450 1450 1451 1442 1438 1438 1434 1431 1430 1429 1427 1422 1420 1419 1420 1419 1419 1419 1419 1422 1425 1428 1430 1433 1437 1439 1441 1446 1448 1451 1454 1457 1461 1463 1465 1467 1469 1472 1474 1477 1481 1484 1487 1491 1495
1466 1465 1463 1464 1453 1451 1454 1439 1434 1434 1430 1429 1426 1423 1420 1417 1412 1412 1411 1410 1409 1410 1411 1412 1415 1419 1423 1428 1433 1432 1437 1441 1445 1446 1449 1453 1457 1459 1461 1464 1466 1469 1471 1474 1477 1481 1485 1489 1492
1457 1459 1463 1459 1452 1453 1453 1441 1432 1430 1427 1423 1420 1417 1414 1411 1406 1405 1403 1401 1399 1399 1401 1402 1405 1410 1413 1418 1423 1426 1428 1434 1439 1441 1444 1448 1452 1455 1458 1460 1462 1465 1468 1471 1473 1477 1481 1485 1490
1457 1459 1457 1453 1448 1451 1451 1435 1429 1427 1421 1418 1418 1418 1415 1410 1402 1398 1395 1391 1390 1390 1391 1394 1396 1401 1405 1409 1414 1418 1421 1427 1433 1435 1439 1442 1447 1450 1454 1456 1459 1462 1465 1468 1470 1473 1476 1481 1485
1452 1455 1451 1453 1447 1445 1441 1430 1421 1418 1420 1422 1422 1418 1410 1409 1402 1396 1391 1385 1381 1380 1382 1387 1388 1391 1395 1399 1404 1412 1416 1421 1428 1432 1433 1438 1442 1445 1449 1452 1455 1459 1460 1463 1466 1468 1471 1475 1480
1453 1440 1442 1444 1447 1451 1443 1450 1411 1417 1422 1420 1419 1413 1409 1404 1399 1396 1388 1382 1376 1375 1375 1379 1382 1383 1387 1391 1396 1402 1407 1414 1418 1422 1427 1432 1437 1441 1445 1448 1451 1454 1456 1459 1461 1464 1467 1471 1474
1442 1435 1437 1438 1445 1444 1443 1455 1419 1419 1417 1417 1415 1413 1411 1403 1396 1394 1387 1381 1372 1368 1369 1371 1375 1377 1381 1384 1390 1395 1402 1408 1414 1422 1424 1428 1433 1437 1441 1444 1446 1449 1452 1454 1457 1460 1463 1467 1470
1431 1434 1439 1443 1447 1452 1431 1445 1436 1428 1424 1417 1412 1411 1406 1400 1396 1392 1386 1378 1368 1364 1364 1364 1368 1371 1374 1379 1382 1388 1395 1401 1409 1415 1420 1424 1428 1431 1435 1438 1441 1444 1447 1450 1453 1456 1458 1461 1465
1431 1440 1454 1455 1458 1450 1433 1435 1427 1422 1416 1413 1410 1409 1407 1398 1397 1392 1382 1375 1370 1363 1360 1360 1362 1365 1368 1374 1378 1383 1389 1396 1403 1410 1416 1419 1422 1425 1429 1432 1435 1439 1443 1447 1449 1451 1453 1457 1459
1435 1438 1450 1448 1448 1437 1426 1434 1419 1414 1413 1414 1410 1409 1403 1399 1399 1390 1381 1377 1370 1364 1359 1359 1363 1364 1366 1372 1378 1384 1387 1394 1399 1404 1410 1414 1417 1420 1425 1429 1432 1436 1439 1441 1444 1447 1449 1452 1455
1432 1438 1428 1434 1435 1440 1429 1420 1414 1412 1410 1409 1408 1405 1403 1404 1400 1390 1386 1379 1371 1365 1361 1359 1361 1363 1367 1370 1377 1383 1386 1389 1395 1402 1408 1411 1413 1417 1421 1426 1429 1433 1435 1438 1440 1442 1444 1446 1448
1438 1439 1448 1455 1444 1438 1426 1421 1422 1412 1409 1408 1411 1407 1408 1405 1399 1392 1386 1378 1372 1368 1361 1357 1358 1360 1367 1368 1375 1383 1386 1388 1394 1400 1404 1408 1411 1414 1419 1422 1426 1429 1431 1434 1436 1437 1439 1440 1441
1444 1441 1450 1449 1446 1437 1436 1435 1413 1410 1411 1412 1415 1409 1413 1408 1401 1394 1389 1383 1376 1370 1364 1359 1357 1358 1366 1367 1377 1383 1386 1389 1393 1398 1403 1407 1411 1412 1416 1419 1422 1425 1428 1430 1431 1431 1432 1431 1429
1442 1446 1449 1453 1446 1446 1440 1432 1418 1418 1417 1417 1419 1414 1417 1415 1410 1404 1396 1388 1380 1374 1367 1363 1362 1362 1368 1372 1379 1382 1385 1386 1394 1398 1403 1405 1408 1410 1413 1416 1419 1422 1424 1425 1427 1427 1427 1425 1427